User: anonymous   Login
Location: Spradlin Observatory
(33.4706°N, 86.3221°W)
Time: 00:18:21
(UTC-05:00)
Language:

COSMOS 2406 - Orbit

View from above orbital plane
View from above orbital plane
View from above satellite
View from above satellite

Ground track
Ground track

The orbit data is extracted from the following two-line orbital elements,

1 28352U 04021A   15182.44894337 -.00000262  00000-0 -11857-3 0  9993
2 28352 071.0022 180.9626 0012433 106.9924 054.7514 14.11418712569714
Epoch (UTC): 01 July 2015 10:46:28
Eccentricity: 0.0012433
inclination: 71.0022°
perigee height: 845 km
apogee height: 863 km
right ascension of ascending node: 180.9626°
argument of perigee: 106.9924°
revolutions per day: 14.11418712
mean anomaly at epoch: 54.7514°
orbit number at epoch: 56971

The dashed part of the orbit path shows where the satellite is in the earth's shadow,  

DLR